Regional Weather Roundup
Issued by NWS

Home | Current Version | Previous Version | Graphics & Text | Print | Product List | Glossary On
Versions: 1 2 3 4 5 6 7 8 9 10 11 12 13 14 15 16 17 18 19 20 21 22 23 24 25 26 27 28 29 30 31 32 33 34 35 36 37 38 39 40 41 42 43 44 45 46 47 48 49 50
116
ASUS43 KBIS 200331
RWRND
NORTH DAKOTA REGIONAL WEATHER ROUNDUP
NATIONAL WEATHER SERVICE EASTERN NORTH DAKOTA/GRAND FORKS ND
1000 PM CDT THU APR 19 2018

  NOTE: "FAIR" INDICATES FEW OR NO CLOUDS BELOW 12,000 FEET WITH NO
  SIGNIFICANT WEATHER AND/OR OBSTRUCTIONS TO VISIBILITY.

NDZ001>003-009>011-017-200400-
...NORTHWEST NORTH DAKOTA...

CITY           SKY/WX    TMP DP  RH WIND       PRES   REMARKS
WILLISTON      FAIR      41  34  76 NE5       30.29R
MINOT          FAIR      39  34  82 SE3       30.32F
MINOT AFB      FAIR      35  34  97 S5        30.31F WCI  31
$$

NDZ018>021-031>035-040>046-200400-
...SOUTHWEST NORTH DAKOTA...

CITY           SKY/WX    TMP DP  RH WIND       PRES   REMARKS
BISMARCK       FAIR      40  33  76 E7        30.33R
DICKINSON      FAIR      42  31  64 E8        30.24R
GARRISON         N/A     39  34  82 E9        30.31S WCI  33
HETTINGER      FAIR      44  30  57 SE12      30.26R
$$

NDZ004>008-012>016-024-026-027-054-200400-
...NORTHEAST NORTH DAKOTA...

CITY           SKY/WX    TMP DP  RH WIND       PRES   REMARKS
GRAND FORKS    FAIR      37  35  92 S7        30.37S WCI  32
GRAND FORKS AF FAIR      39  33  79 SW7       30.37R WCI  34
DEVILS LAKE    FAIR      37  32  82 CALM      30.36S
$$

NDZ022-023-025-028>030-036>039-047>053-200400-
...SOUTHEAST NORTH DAKOTA...

CITY           SKY/WX    TMP DP  RH WIND       PRES   REMARKS
JAMESTOWN      FAIR      40  31  70 E5        30.35S
FARGO          FAIR      41  30  65 NE3       30.38S
WAHPETON       MOCLDY    45  32  61 S5        30.39S
$$




USA.gov is the U.S. government's official web portal to all federal, state and local government web resources and services.